N68UW KPVU-KTVL

Flight info

Callsign N68UW
Flight time 1h 14m
Altitude 38000
Route DITTI1 TCH J154 BVL Q124 MCORD Q122 MACUS HUYJO
Aircraft CL60/M-SBDE1E2E3FGHIJ1J3J4J5J7M3P2RWXYZ/LB1V1D1

Departure

Time 2026-04-23 23:55
Airport Provo Municipal Airport (KPVU)

Arrival

Time 2026-04-24 01:09
Airport Lake Tahoe Airport (KTVL)
Time Latitude Longitude Altitude Speed Heading
2026-04-23 23:27 40.21908 -111.71922 4505 ft 0 kts 335°
2026-04-23 23:51 40.21934 -111.71954 4505 ft 12 kts 286°
2026-04-23 23:51 40.21898 -111.72011 4505 ft 5 kts 179°
2026-04-23 23:52 40.21854 -111.71993 4505 ft 8 kts 149°
2026-04-23 23:52 40.21776 -111.71922 4505 ft 16 kts 146°
2026-04-23 23:52 40.21675 -111.71833 4505 ft 18 kts 144°
2026-04-23 23:52 40.21565 -111.71735 4505 ft 20 kts 146°
2026-04-23 23:53 40.21444 -111.71629 4504 ft 21 kts 145°
2026-04-23 23:53 40.21316 -111.71514 4504 ft 22 kts 146°
2026-04-23 23:53 40.21196 -111.71410 4504 ft 19 kts 148°
2026-04-23 23:53 40.21128 -111.71417 4504 ft 11 kts 233°
2026-04-23 23:54 40.21086 -111.71525 4504 ft 11 kts 295°
2026-04-23 23:54 40.21225 -111.71653 4504 ft 62 kts 326°
2026-04-23 23:54 40.21851 -111.72209 4505 ft 148 kts 325°
2026-04-23 23:54 40.22809 -111.73060 4895 ft 181 kts 325°
2026-04-23 23:55 40.23864 -111.74148 5499 ft 212 kts 307°
2026-04-23 23:55 40.24443 -111.76013 6225 ft 238 kts 273°
2026-04-23 23:55 40.24099 -111.78171 7111 ft 255 kts 241°
2026-04-23 23:55 40.22927 -111.79932 8066 ft 270 kts 225°
2026-04-23 23:56 40.21551 -111.81596 9206 ft 277 kts 225°
2026-04-23 23:56 40.20145 -111.83312 10470 ft 279 kts 226°
2026-04-23 23:56 40.18744 -111.85045 11664 ft 283 kts 227°
2026-04-23 23:56 40.17326 -111.86829 12737 ft 291 kts 227°
2026-04-23 23:57 40.15881 -111.88679 13764 ft 299 kts 228°
2026-04-23 23:57 40.14612 -111.90787 14759 ft 300 kts 247°
2026-04-23 23:57 40.14110 -111.93382 15779 ft 298 kts 272°
2026-04-23 23:57 40.14439 -111.96047 16579 ft 306 kts 286°
2026-04-23 23:58 40.14979 -111.98782 17337 ft 318 kts 286°
2026-04-23 23:58 40.15523 -112.01589 18077 ft 329 kts 286°
2026-04-23 23:58 40.16227 -112.04452 18841 ft 336 kts 297°
2026-04-23 23:58 40.17553 -112.06955 19614 ft 342 kts 314°
2026-04-23 23:59 40.19491 -112.08782 20380 ft 351 kts 332°
2026-04-23 23:59 40.21891 -112.09619 21146 ft 364 kts 353°
2026-04-23 23:59 40.24465 -112.09383 21612 ft 383 kts
2026-04-23 23:59 40.27158 -112.08881 22120 ft 394 kts
2026-04-24 00:00 40.29876 -112.08381 22756 ft 400 kts
2026-04-24 00:00 40.32661 -112.07869 23504 ft 404 kts
2026-04-24 00:00 40.35426 -112.07361 24187 ft 408 kts
2026-04-24 00:00 40.38262 -112.06840 24854 ft 412 kts
2026-04-24 00:01 40.41110 -112.06316 25510 ft 416 kts
2026-04-24 00:01 40.43997 -112.05785 26059 ft 420 kts
2026-04-24 00:01 40.46884 -112.05255 26585 ft 425 kts
2026-04-24 00:01 40.49815 -112.04717 27122 ft 428 kts
2026-04-24 00:02 40.52773 -112.04172 27637 ft 431 kts
2026-04-24 00:02 40.55767 -112.03621 28107 ft 434 kts
2026-04-24 00:02 40.58776 -112.03067 28531 ft 438 kts
2026-04-24 00:02 40.61803 -112.02509 28953 ft 442 kts
2026-04-24 00:03 40.64883 -112.01942 29355 ft 445 kts
2026-04-24 00:03 40.67967 -112.01372 29779 ft 447 kts
2026-04-24 00:03 40.71051 -112.00821 30290 ft 445 kts
2026-04-24 00:03 40.74126 -112.00948 30858 ft 432 kts 345°
2026-04-24 00:04 40.76989 -112.02099 31338 ft 422 kts 331°
2026-04-24 00:04 40.79488 -112.04118 31741 ft 415 kts 318°
2026-04-24 00:04 40.81544 -112.06783 32149 ft 410 kts 307°
2026-04-24 00:04 40.83156 -112.09856 32568 ft 406 kts 297°
2026-04-24 00:05 40.84290 -112.13242 33015 ft 402 kts 288°
2026-04-24 00:05 40.84919 -112.16875 33421 ft 401 kts 278°
2026-04-24 00:05 40.85004 -112.20564 33847 ft 400 kts 268°
2026-04-24 00:05 40.84650 -112.24180 34229 ft 399 kts 264°
2026-04-24 00:06 40.84230 -112.27779 34584 ft 397 kts 264°
2026-04-24 00:06 40.83820 -112.31382 34883 ft 396 kts 264°
2026-04-24 00:06 40.83423 -112.34983 35169 ft 395 kts 264°
2026-04-24 00:06 40.83040 -112.38585 35398 ft 395 kts 264°
2026-04-24 00:07 40.82674 -112.42148 35604 ft 395 kts 265°
2026-04-24 00:07 40.82320 -112.45744 35815 ft 396 kts 265°
2026-04-24 00:07 40.81980 -112.49339 36012 ft 396 kts 265°
2026-04-24 00:07 40.81657 -112.52919 36229 ft 395 kts 266°
2026-04-24 00:08 40.81344 -112.56554 36432 ft 395 kts 266°
2026-04-24 00:08 40.81053 -112.60169 36635 ft 395 kts 267°
2026-04-24 00:08 40.80800 -112.63761 36835 ft 394 kts 267°
2026-04-24 00:08 40.80550 -112.67368 37013 ft 394 kts 266°
2026-04-24 00:09 40.80296 -112.71021 37149 ft 396 kts 266°
2026-04-24 00:09 40.80045 -112.74635 37279 ft 398 kts 266°
2026-04-24 00:09 40.79788 -112.78314 37417 ft 399 kts 266°
2026-04-24 00:09 40.79533 -112.81956 37550 ft 400 kts 266°
2026-04-24 00:10 40.79274 -112.85649 37678 ft 401 kts 266°
2026-04-24 00:10 40.79016 -112.89306 37808 ft 402 kts 266°
2026-04-24 00:10 40.78757 -112.92962 37935 ft 403 kts 266°
2026-04-24 00:10 40.78496 -112.96650 38021 ft 405 kts 266°
2026-04-24 00:11 40.77966 -113.04069 38026 ft 411 kts 266°
2026-04-24 00:11 40.77425 -113.11603 38033 ft 412 kts 266°
2026-04-24 00:12 40.76879 -113.19129 38026 ft 411 kts 266°
2026-04-24 00:12 40.76329 -113.26641 38028 ft 410 kts 266°
2026-04-24 00:13 40.75774 -113.34163 38033 ft 410 kts 266°
2026-04-24 00:13 40.75217 -113.41658 38035 ft 410 kts 266°
2026-04-24 00:14 40.74656 -113.49129 38043 ft 410 kts 266°
2026-04-24 00:14 40.74092 -113.56577 38040 ft 410 kts 266°
2026-04-24 00:15 40.73521 -113.64062 38039 ft 411 kts 266°
2026-04-24 00:15 40.72937 -113.71644 38038 ft 412 kts 266°
2026-04-24 00:16 40.72490 -113.79161 38037 ft 411 kts 269°
2026-04-24 00:16 40.72252 -113.86687 38033 ft 411 kts 269°
2026-04-24 00:17 40.72007 -113.94174 38034 ft 411 kts 269°
2026-04-24 00:17 40.71755 -114.01669 38037 ft 410 kts 269°
2026-04-24 00:18 40.71497 -114.09199 38049 ft 411 kts 269°
2026-04-24 00:18 40.71235 -114.16718 38057 ft 411 kts 269°
2026-04-24 00:19 40.70965 -114.24277 38052 ft 412 kts 269°
2026-04-24 00:19 40.70692 -114.31776 38050 ft 411 kts 269°
2026-04-24 00:20 40.70415 -114.39268 38060 ft 411 kts 269°
2026-04-24 00:20 40.70132 -114.46776 38067 ft 410 kts 269°
2026-04-24 00:21 40.69749 -114.54280 38066 ft 411 kts 268°
2026-04-24 00:21 40.69280 -114.61762 38077 ft 411 kts 268°
2026-04-24 00:22 40.68805 -114.69280 38080 ft 411 kts 267°
2026-04-24 00:22 40.68327 -114.76778 38082 ft 411 kts 267°
2026-04-24 00:23 40.67840 -114.84314 38069 ft 412 kts 267°
2026-04-24 00:23 40.67352 -114.91802 38079 ft 411 kts 267°
2026-04-24 00:24 40.66858 -114.99284 38089 ft 411 kts 267°
2026-04-24 00:24 40.66359 -115.06767 38083 ft 412 kts 267°
2026-04-24 00:25 40.65849 -115.14365 38087 ft 411 kts 267°
2026-04-24 00:25 40.65341 -115.21843 38086 ft 411 kts 267°
2026-04-24 00:26 40.64830 -115.29320 38075 ft 412 kts 267°
2026-04-24 00:26 40.64309 -115.36863 38075 ft 412 kts 267°
2026-04-24 00:27 40.63784 -115.44389 38077 ft 412 kts 267°
2026-04-24 00:27 40.63254 -115.51920 38081 ft 412 kts 267°
2026-04-24 00:28 40.62717 -115.59471 38081 ft 411 kts 267°
2026-04-24 00:28 40.62179 -115.66965 38084 ft 412 kts 266°
2026-04-24 00:29 40.61634 -115.74482 38092 ft 413 kts 266°
2026-04-24 00:29 40.61087 -115.81972 38092 ft 413 kts 266°
2026-04-24 00:30 40.60535 -115.89455 38085 ft 413 kts 266°
2026-04-24 00:30 40.59971 -115.97025 38082 ft 413 kts 267°
2026-04-24 00:31 40.59408 -116.04517 38081 ft 413 kts 266°
2026-04-24 00:31 40.58841 -116.11998 38080 ft 413 kts 266°
2026-04-24 00:32 40.58265 -116.19535 38020 ft 412 kts 266°
2026-04-24 00:32 40.57686 -116.27042 38076 ft 412 kts 266°
2026-04-24 00:33 40.57104 -116.34521 38088 ft 413 kts 266°
2026-04-24 00:33 40.56244 -116.42031 38089 ft 416 kts 258°
2026-04-24 00:34 40.54631 -116.49372 38088 ft 417 kts 257°
2026-04-24 00:34 40.53019 -116.56688 38087 ft 416 kts 257°
2026-04-24 00:35 40.51401 -116.64010 38089 ft 416 kts 257°
2026-04-24 00:35 40.49787 -116.71290 38092 ft 417 kts 257°
2026-04-24 00:36 40.48143 -116.78680 38097 ft 417 kts 257°
2026-04-24 00:36 40.46514 -116.85976 38089 ft 418 kts 257°
2026-04-24 00:37 40.44875 -116.93305 38093 ft 418 kts 257°
2026-04-24 00:37 40.43225 -117.00649 38092 ft 417 kts 257°
2026-04-24 00:38 40.41586 -117.07919 38093 ft 416 kts 257°
2026-04-24 00:38 40.39949 -117.15163 38087 ft 416 kts 257°
2026-04-24 00:39 40.38297 -117.22450 38092 ft 416 kts 257°
2026-04-24 00:39 40.36645 -117.29711 38095 ft 415 kts 257°
2026-04-24 00:40 40.34990 -117.36964 38091 ft 414 kts 257°
2026-04-24 00:40 40.33338 -117.44182 38086 ft 414 kts 257°
2026-04-24 00:41 40.31676 -117.51421 38093 ft 414 kts 257°
2026-04-24 00:41 40.30010 -117.58655 38094 ft 414 kts 257°
2026-04-24 00:42 40.28350 -117.65837 38089 ft 414 kts 256°
2026-04-24 00:42 40.26668 -117.73095 38090 ft 415 kts 256°
2026-04-24 00:43 40.24992 -117.80302 38090 ft 415 kts 256°
2026-04-24 00:43 40.23304 -117.87541 38089 ft 414 kts 256°
2026-04-24 00:44 40.21616 -117.94754 38087 ft 414 kts 256°
2026-04-24 00:44 40.20200 -118.00696 38091 ft 414 kts 254°
2026-04-24 00:45 40.17654 -118.07573 38088 ft 418 kts 247°
2026-04-24 00:45 40.14962 -118.14281 38086 ft 418 kts 247°
2026-04-24 00:46 40.12251 -118.21030 37553 ft 424 kts 247°
2026-04-24 00:46 40.10877 -118.24442 37107 ft 420 kts 247°
2026-04-24 00:46 40.09525 -118.27795 36660 ft 419 kts 247°
2026-04-24 00:47 40.08175 -118.31143 36219 ft 418 kts 248°
2026-04-24 00:47 40.06822 -118.34495 35741 ft 418 kts 248°
2026-04-24 00:47 40.05461 -118.37863 35274 ft 417 kts 248°
2026-04-24 00:47 40.04116 -118.41188 34817 ft 417 kts 248°
2026-04-24 00:48 40.02770 -118.44512 34349 ft 417 kts 248°
2026-04-24 00:48 40.01403 -118.47887 33888 ft 416 kts 248°
2026-04-24 00:48 40.00053 -118.51224 33424 ft 419 kts 248°
2026-04-24 00:48 39.98693 -118.54577 32968 ft 421 kts 248°
2026-04-24 00:49 39.97328 -118.57940 32506 ft 423 kts 248°
2026-04-24 00:49 39.95937 -118.61362 32042 ft 426 kts 247°
2026-04-24 00:49 39.94556 -118.64755 31559 ft 429 kts 247°
2026-04-24 00:49 39.93137 -118.68240 31099 ft 433 kts 246°
2026-04-24 00:50 39.91731 -118.71687 30611 ft 435 kts 246°
2026-04-24 00:50 39.90300 -118.75189 30123 ft 436 kts 246°
2026-04-24 00:50 39.88872 -118.78674 29646 ft 435 kts 245°
2026-04-24 00:50 39.87213 -118.81964 29128 ft 438 kts 237°
2026-04-24 00:51 39.85346 -118.85078 28669 ft 436 kts 236°
2026-04-24 00:51 39.83491 -118.88180 28151 ft 433 kts 236°
2026-04-24 00:51 39.81633 -118.91285 27700 ft 431 kts 236°
2026-04-24 00:51 39.79797 -118.94353 27204 ft 429 kts 236°
2026-04-24 00:52 39.77976 -118.97394 26746 ft 427 kts 236°
2026-04-24 00:52 39.76154 -119.00433 26264 ft 424 kts 236°
2026-04-24 00:52 39.74354 -119.03435 25799 ft 422 kts 236°
2026-04-24 00:52 39.72559 -119.06425 25338 ft 419 kts 235°
2026-04-24 00:53 39.70775 -119.09396 24880 ft 417 kts 235°
2026-04-24 00:53 39.70752 -119.09433 24875 ft 417 kts 235°
2026-04-24 00:53 39.69176 -119.12056 24467 ft 415 kts 235°
2026-04-24 00:53 39.67401 -119.15006 24012 ft 413 kts 235°
2026-04-24 00:54 39.65657 -119.17904 23556 ft 411 kts 234°
2026-04-24 00:54 39.63904 -119.20812 23107 ft 408 kts 234°
2026-04-24 00:54 39.62152 -119.23717 22657 ft 406 kts 234°
2026-04-24 00:54 39.60420 -119.26588 22216 ft 404 kts 234°
2026-04-24 00:55 39.58687 -119.29456 21769 ft 402 kts 234°
2026-04-24 00:55 39.56992 -119.32260 21329 ft 396 kts 234°
2026-04-24 00:55 39.55296 -119.35062 20897 ft 390 kts 234°
2026-04-24 00:55 39.53631 -119.37811 20470 ft 385 kts 234°
2026-04-24 00:56 39.51987 -119.40524 20045 ft 379 kts 234°
2026-04-24 00:56 39.50369 -119.43191 19633 ft 374 kts 234°
2026-04-24 00:56 39.48777 -119.45813 19224 ft 367 kts 234°
2026-04-24 00:56 39.47217 -119.48382 18832 ft 362 kts 233°
2026-04-24 00:57 39.45683 -119.50904 18435 ft 356 kts 233°
2026-04-24 00:57 39.44159 -119.53410 17912 ft 354 kts 233°
2026-04-24 00:57 39.41182 -119.58297 17165 ft 338 kts 233°
2026-04-24 00:58 39.39744 -119.60654 16816 ft 331 kts 233°
2026-04-24 00:58 39.39660 -119.60792 16793 ft 331 kts 233°
2026-04-24 00:59 39.38481 -119.62724 16496 ft 327 kts 233°
2026-04-24 00:59 39.37084 -119.65011 16165 ft 322 kts 232°
2026-04-24 00:59 39.35695 -119.67284 15790 ft 319 kts 232°
2026-04-24 01:00 39.34327 -119.69523 15431 ft 314 kts 232°
2026-04-24 01:00 39.32972 -119.71735 15094 ft 309 kts 232°
2026-04-24 01:00 39.31663 -119.73873 14757 ft 305 kts 232°
2026-04-24 01:00 39.30351 -119.76015 14426 ft 302 kts 232°
2026-04-24 01:01 39.29040 -119.78153 14089 ft 299 kts 232°
2026-04-24 01:01 39.27764 -119.80233 13764 ft 296 kts 232°
2026-04-24 01:01 39.26495 -119.82299 13441 ft 294 kts 232°
2026-04-24 01:01 39.25227 -119.84364 13127 ft 291 kts 232°
2026-04-24 01:02 39.23975 -119.86424 12811 ft 288 kts 233°
2026-04-24 01:02 39.22760 -119.88438 12496 ft 286 kts 233°
2026-04-24 01:02 39.21542 -119.90459 12181 ft 284 kts 233°
2026-04-24 01:02 39.20326 -119.92472 11872 ft 281 kts 233°
2026-04-24 01:03 39.19143 -119.94430 11572 ft 280 kts 232°
2026-04-24 01:03 39.17852 -119.96291 11253 ft 278 kts 218°
2026-04-24 01:03 39.16138 -119.97383 11059 ft 268 kts 192°
2026-04-24 01:03 39.14331 -119.97542 11015 ft 254 kts 176°
2026-04-24 01:04 39.12595 -119.97387 10650 ft 248 kts 174°
2026-04-24 01:04 39.10897 -119.97225 10194 ft 245 kts 174°
2026-04-24 01:04 39.09214 -119.97072 9879 ft 236 kts 174°
2026-04-24 01:04 39.07604 -119.96927 9629 ft 226 kts 174°
2026-04-24 01:05 39.06080 -119.96789 9389 ft 216 kts 174°
2026-04-24 01:05 39.04613 -119.96699 9296 ft 213 kts 180°
2026-04-24 01:05 39.03096 -119.96927 8953 ft 217 kts 188°
2026-04-24 01:05 39.01672 -119.97223 8660 ft 196 kts 187°
2026-04-24 01:06 39.00408 -119.97461 8429 ft 173 kts 187°
2026-04-24 01:06 38.99255 -119.97670 8172 ft 164 kts 187°
2026-04-24 01:06 38.98138 -119.97868 7952 ft 160 kts 187°
2026-04-24 01:06 38.97036 -119.98064 7728 ft 158 kts 187°
2026-04-24 01:07 38.95954 -119.98119 7523 ft 156 kts 178°
2026-04-24 01:07 38.94838 -119.98148 7341 ft 162 kts 182°
2026-04-24 01:07 38.93727 -119.98277 7111 ft 160 kts 189°
2026-04-24 01:07 38.92635 -119.98565 6850 ft 158 kts 194°
2026-04-24 01:08 38.91575 -119.98886 6582 ft 155 kts 193°
2026-04-24 01:08 38.90533 -119.99202 6336 ft 152 kts 193°
2026-04-24 01:08 38.89584 -119.99479 6279 ft 125 kts 193°
2026-04-24 01:08 38.88968 -119.99660 6282 ft 56 kts 194°
2026-04-24 01:09 38.88672 -119.99747 6282 ft 41 kts 193°
2026-04-24 01:09 38.88383 -119.99831 6282 ft 43 kts 194°
2026-04-24 01:09 38.88264 -119.99913 6282 ft 13 kts 278°
2026-04-24 01:09 38.88334 -119.99950 6282 ft 13 kts 12°
2026-04-24 01:10 38.88438 -119.99920 6282 ft 16 kts 14°
2026-04-24 01:10 38.88560 -119.99883 6282 ft 19 kts 12°
2026-04-24 01:10 38.88701 -119.99842 6283 ft 22 kts 13°
2026-04-24 01:10 38.88860 -119.99796 6282 ft 24 kts 13°
2026-04-24 01:11 38.89032 -119.99744 6282 ft 26 kts 12°
2026-04-24 01:11 38.89201 -119.99695 6282 ft 10 kts 11°
2026-04-24 01:11 38.89240 -119.99749 6282 ft 12 kts 277°
2026-04-24 01:11 38.89246 -119.99786 6282 ft 1 kts 288°
2026-04-24 01:12 38.89269 -119.99800 6282 ft 8 kts 13°
2026-04-24 01:12 38.89301 -119.99790 6282 ft 0 kts 11°